Location: Équennes
(49.7375°N, 1.9622°E)
Time: 17:34:37
(UTC+00:00)

Cosmos 2278 - Pass Details

Date: 27 September 2023
Orbit: 838 x 853 km, 71.1° (Epoch: 08 December)

Event Time Altitude Azimuth Distance (km) Brightness Sun altitude
Rises 03:12:26 0° 325° (NW) 3,428 6.8 -24.5°
Reaches altitude 10° 03:15:05 10° 317° (NW) 2,489 6.0 -24.2°
Enters shadow 03:15:24 11° 315° (NW) 2,386 5.9 -24.1°
